Weather History for Waseca, MN

Change the Weather History Date:

Sunday, September 23, 2012

  Actual Average Record
Temperature  
Mean Temperature 44 °F -  
Max Temperature 62 °F 64 °F 88 °F (1930)
Min Temperature 26 °F 39 °F 24 °F (1974)
Degree Days  
Heating Degree Days 21    
Growing Degree Days 0 (Base 50)    
Moisture  
Dew Point 25 °F    
Average Humidity 53    
Maximum Humidity 87    
Minimum Humidity 20    
Precipitation  
Precipitation 0.00 in - - ()
Sea Level Pressure  
Sea Level Pressure 30.28 in    
Wind  
Wind Speed 3 mph (WNW)    
Max Wind Speed 16 mph    
Max Gust Speed 22 mph    
Visibility 10 miles    
Events      
Averages and records for this station are not official NWS values.
T = Trace of Precipitation, MM = Missing Value Source: NWS Daily Summary

Daily Weather History Graph

Daily Weather History Graph

Search for Another Location

Airport:

Trip Planner

Search our weather history database for the weather conditions in past years. The results will help you decide how hot, cold, wet, or windy it might be!

Date:

Astronomy

Sep. 23, 2012 Rise Set
Actual Time 7:03 AM CDT 7:08 PM CDT
Civil Twilight 6:34 AM CDT 7:37 PM CDT
Nautical Twilight 6:00 AM CDT 8:11 PM CDT
Astronomical Twilight 5:25 AM CDT 8:45 PM CDT
Moon 3:21 PM CDT (9/23) 12:04 AM CDT (9/23)
Length of Visible Light 13h 03m
Length of Day
12h 05m
First Quarter, 60% of the Moon is Illuminated
Sep 23
First Quarter
Sep 29
Full
Oct 8
Last Quarter
Oct 15
New
Oct 21
First Quarter

Hourly Weather History & Observations

Time (CDT) Temp. Windchill Dew Point Humidity Pressure Visibility Wind Dir Wind Speed Gust Speed Precip Events Conditions
12:13 AM 39.2 °F - 28.4 °F 65% 30.27 in 10.0 mi Calm Calm - N/A   Clear
12:33 AM 35.6 °F - 28.4 °F 75% 30.27 in 10.0 mi Calm Calm - N/A   Clear
12:52 AM 35.6 °F - 28.4 °F 75% 30.27 in 10.0 mi Calm Calm - N/A   Clear
1:13 AM 33.8 °F - 26.6 °F 75% 30.27 in 10.0 mi Calm Calm - N/A   Clear
1:33 AM 32.0 °F - 26.6 °F 80% 30.28 in 10.0 mi Calm Calm - N/A   Clear
1:52 AM 33.8 °F 30.8 °F 28.4 °F 81% 30.28 in 10.0 mi WSW 3.5 mph - N/A   Clear
2:13 AM 32.0 °F 28.7 °F 26.6 °F 80% 30.28 in 10.0 mi WSW 3.5 mph - N/A   Clear
2:33 AM 32.0 °F - 26.6 °F 80% 30.28 in 10.0 mi Calm Calm - N/A   Clear
2:52 AM 33.8 °F - 28.4 °F 81% 30.29 in 10.0 mi Calm Calm - N/A   Clear
3:13 AM 32.0 °F - 26.6 °F 80% 30.29 in 10.0 mi Calm Calm - N/A   Clear
3:32 AM 32.0 °F - 26.6 °F 80% 30.29 in 10.0 mi Calm Calm - N/A   Clear
3:53 AM 32.0 °F - 26.6 °F 80% 30.29 in 10.0 mi Calm Calm - N/A   Clear
4:13 AM 30.2 °F - 24.8 °F 80% 30.29 in 10.0 mi Calm Calm - N/A   Clear
4:33 AM 32.0 °F - 26.6 °F 80% 30.29 in 10.0 mi Calm Calm - N/A   Clear
4:52 AM 28.4 °F - 21.2 °F 74% 30.29 in 10.0 mi Calm Calm - N/A   Clear
5:12 AM 28.4 °F - 23.0 °F 80% 30.30 in 10.0 mi Calm Calm - N/A   Clear
5:33 AM 30.2 °F - 23.0 °F 75% 30.30 in 10.0 mi Calm Calm - N/A   Clear
5:52 AM 26.6 °F - 21.2 °F 80% 30.30 in 10.0 mi Calm Calm - N/A   Clear
6:12 AM 26.6 °F 22.6 °F 21.2 °F 80% 30.31 in 10.0 mi SSW 3.5 mph - N/A   Clear
6:33 AM 28.4 °F 24.6 °F 23.0 °F 80% 30.31 in 10.0 mi SSW 3.5 mph - N/A   Clear
6:53 AM 28.4 °F - 23.0 °F 80% 30.31 in 10.0 mi Calm Calm - N/A   Clear
7:12 AM 28.4 °F - 23.0 °F 80% 30.32 in 10.0 mi Calm Calm - N/A   Clear
7:33 AM 28.4 °F - 23.0 °F 80% 30.33 in 10.0 mi Calm Calm - N/A   Clear
7:53 AM 28.4 °F - 23.0 °F 80% 30.33 in 10.0 mi Calm Calm - N/A   Clear
8:12 AM 32.0 °F - 28.4 °F 87% 30.33 in 10.0 mi Calm Calm - N/A   Clear
8:33 AM 33.8 °F 30.8 °F 30.2 °F 87% 30.33 in 10.0 mi WSW 3.5 mph - N/A   Clear
8:52 AM 39.2 °F 37.0 °F 32.0 °F 75% 30.34 in 10.0 mi WNW 3.5 mph - N/A   Clear
9:13 AM 41.0 °F 39.0 °F 32.0 °F 70% 30.34 in 10.0 mi WSW 3.5 mph - N/A   Clear
9:33 AM 44.6 °F 42.2 °F 32.0 °F 61% 30.35 in 10.0 mi West 4.6 mph - N/A   Clear
9:52 AM 46.4 °F 43.5 °F 32.0 °F 57% 30.35 in 10.0 mi West 5.8 mph - N/A   Clear
10:13 AM 50.0 °F - 32.0 °F 50% 30.35 in 10.0 mi WNW 4.6 mph - N/A   Clear
10:32 AM 51.8 °F - 28.4 °F 41% 30.35 in 10.0 mi WNW 10.4 mph - N/A   Clear
10:53 AM 53.6 °F - 26.6 °F 35% 30.35 in 10.0 mi NW 9.2 mph 17.3 mph N/A   Clear
11:12 AM 53.6 °F - 26.6 °F 35% 30.34 in 10.0 mi NW 10.4 mph 20.7 mph N/A   Clear
11:33 AM 53.6 °F - 24.8 °F 33% 30.34 in 10.0 mi NNW 16.1 mph 19.6 mph N/A   Clear
11:53 AM 55.4 °F - 24.8 °F 31% 30.34 in 10.0 mi NW 11.5 mph 19.6 mph N/A   Clear
12:12 PM 55.4 °F - 24.8 °F 31% 30.34 in 10.0 mi NNW 13.8 mph 17.3 mph N/A   Clear
12:33 PM 57.2 °F - 23.0 °F 27% 30.34 in 10.0 mi WNW 13.8 mph 17.3 mph N/A   Clear
12:52 PM 59.0 °F - 24.8 °F 27% 30.33 in 10.0 mi NW 11.5 mph 18.4 mph N/A   Clear
1:13 PM 59.0 °F - 23.0 °F 25% 30.32 in 10.0 mi NW 5.8 mph 19.6 mph N/A   Clear
1:33 PM 59.0 °F - 23.0 °F 25% 30.31 in 10.0 mi West 11.5 mph 16.1 mph N/A   Clear
1:53 PM 59.0 °F - 23.0 °F 25% 30.30 in 10.0 mi NW 13.8 mph 18.4 mph N/A   Clear
2:13 PM 59.0 °F - 21.2 °F 23% 30.30 in 10.0 mi West 12.7 mph 18.4 mph N/A   Clear
2:33 PM 59.0 °F - 21.2 °F 23% 30.29 in 10.0 mi NW 6.9 mph 21.9 mph N/A   Clear
2:53 PM 60.8 °F - 21.2 °F 22% 30.29 in 10.0 mi NW 13.8 mph 18.4 mph N/A   Clear
3:12 PM 60.8 °F - 21.2 °F 22% 30.28 in 10.0 mi NNW 9.2 mph - N/A   Clear
3:33 PM 59.0 °F - 19.4 °F 22% 30.27 in 10.0 mi NW 10.4 mph 18.4 mph N/A   Clear
3:52 PM 59.0 °F - 19.4 °F 22% 30.26 in 10.0 mi NW 3.5 mph - N/A   Clear
4:13 PM 62.6 °F - 21.2 °F 20% 30.25 in 10.0 mi NW 8.1 mph - N/A   Clear
4:33 PM 62.6 °F - 21.2 °F 20% 30.25 in 10.0 mi NW 12.7 mph 18.4 mph N/A   Clear
4:53 PM 62.6 °F - 21.2 °F 20% 30.25 in 10.0 mi NW 9.2 mph 16.1 mph N/A   Clear
5:13 PM 60.8 °F - 21.2 °F 22% 30.24 in 10.0 mi West 9.2 mph - N/A   Clear
5:32 PM 60.8 °F - 19.4 °F 20% 30.23 in 10.0 mi WNW 9.2 mph - N/A   Clear
5:53 PM 59.0 °F - 19.4 °F 22% 30.23 in 10.0 mi NW 9.2 mph - N/A   Clear
6:12 PM 59.0 °F - 19.4 °F 22% 30.23 in 10.0 mi WNW 5.8 mph - N/A   Clear
6:33 PM 59.0 °F - 21.2 °F 23% 30.23 in 10.0 mi WNW 4.6 mph - N/A   Clear
6:52 PM 55.4 °F - 19.4 °F 25% 30.23 in 10.0 mi West 4.6 mph - N/A   Clear
7:13 PM 53.6 °F - 19.4 °F 26% 30.23 in 7.0 mi West 3.5 mph - N/A   Clear
7:33 PM 50.0 °F - 21.2 °F 32% 30.23 in 10.0 mi Calm Calm - N/A   Clear
7:53 PM 48.2 °F - 21.2 °F 34% 30.23 in 4.0 mi Calm Calm - N/A   Haze
8:13 PM 46.4 °F - 23.0 °F 40% 30.23 in 5.0 mi Calm Calm - N/A   Haze
8:33 PM 44.6 °F - 24.8 °F 46% 30.23 in 10.0 mi Calm Calm - N/A   Clear
8:53 PM 44.6 °F - 28.4 °F 53% 30.23 in 7.0 mi Calm Calm - N/A   Clear
9:13 PM 41.0 °F - 24.8 °F 53% 30.23 in 7.0 mi Calm Calm - N/A   Clear
9:33 PM 41.0 °F - 26.6 °F 57% 30.23 in 10.0 mi Calm Calm - N/A   Clear
9:53 PM 39.2 °F - 28.4 °F 65% 30.23 in 10.0 mi Calm Calm - N/A   Clear
10:13 PM 39.2 °F - 26.6 °F 61% 30.23 in 7.0 mi Calm Calm - N/A   Clear
10:32 PM 37.4 °F 34.9 °F 26.6 °F 65% 30.22 in 10.0 mi South 3.5 mph - N/A   Clear
10:52 PM 39.2 °F - 28.4 °F 65% 30.22 in 10.0 mi Calm Calm - N/A   Clear
11:12 PM 35.6 °F 32.8 °F 26.6 °F 70% 30.22 in 10.0 mi South 3.5 mph - N/A   Clear
11:33 PM 35.6 °F 32.8 °F 26.6 °F 70% 30.21 in 10.0 mi South 3.5 mph - N/A   Clear
11:53 PM 39.2 °F - 28.4 °F 65% 30.20 in 10.0 mi Calm Calm - N/A   Clear